User: anonymous   Login
Location: Unspecified
(0.0000°N, 0.0000°E)
Time: 15:08:14
(UTC+02:00)
Language:

Ariane H10 - Orbit

View from above orbital plane
View from above orbital plane
View from above satellite
View from above satellite

Ground track
Ground track

The orbit data is extracted from the following two-line orbital elements,

1 19122U 88040B   16119.68533365 +.00000023 +00000-0 +66571-3 0  9995
2 19122 007.5980 341.7095 7130658 166.0765 235.3416 02.33196320187274
Epoch (UTC): 28 April 2016 16:26:52
Eccentricity: 0.7130658
inclination: 7.5980°
perigee height: 514 km
apogee height: 34771 km
right ascension of ascending node: 341.7095°
argument of perigee: 166.0765°
revolutions per day: 2.33196320
mean anomaly at epoch: 235.3416°
orbit number at epoch: 18727

The dashed part of the orbit path shows where the satellite is in the earth's shadow,  

DLR